Regional Weather Roundup
Issued by NWS

Home | Current Version | Previous Version | Graphics & Text | Print | Product List | Glossary On
Versions: 1 2 3 4 5 6 7 8 9 10 11 12 13 14 15 16 17 18 19 20 21 22 23 24 25 26 27 28 29 30 31 32 33 34 35 36 37 38 39 40 41 42 43 44 45 46 47 48 49 50
000
ASUS43 KBIS 231910
RWRND
NORTH DAKOTA REGIONAL WEATHER ROUNDUP
NATIONAL WEATHER SERVICE EASTERN NORTH DAKOTA/GRAND FORKS ND
200 PM CDT MON APR 23 2018

  NOTE: "FAIR" INDICATES FEW OR NO CLOUDS BELOW 12,000 FEET WITH NO
  SIGNIFICANT WEATHER AND/OR OBSTRUCTIONS TO VISIBILITY.

NDZ001>003-009>011-017-232000-
...NORTHWEST NORTH DAKOTA...

CITY           SKY/WX    TMP DP  RH WIND       PRES   REMARKS
WILLISTON      CLOUDY    49  33  54 N15       30.31S
MINOT          FAIR      54  34  46 NW15G21   30.25F
MINOT AFB      NOT AVBL
$$

NDZ018>021-031>035-040>046-232000-
...SOUTHWEST NORTH DAKOTA...

CITY           SKY/WX    TMP DP  RH WIND       PRES   REMARKS
BISMARCK       PTSUNNY   65  32  29 NE14G23   30.19F
DICKINSON      CLOUDY    51  30  44 N21G26    30.20F
GARRISON         N/A     52  35  52 N16G23    30.23F
HETTINGER      FAIR      65  33  30 NE30G37   30.14F
$$

NDZ004>008-012>016-024-026-027-054-232000-
...NORTHEAST NORTH DAKOTA...

CITY           SKY/WX    TMP DP  RH WIND       PRES   REMARKS
GRAND FORKS    FAIR      61  39  44 N9G20     30.19F
GRAND FORKS AF NOT AVBL
DEVILS LAKE    FAIR      56  33  42 N7        30.22F
$$

NDZ022-023-025-028>030-036>039-047>053-232000-
...SOUTHEAST NORTH DAKOTA...

CITY           SKY/WX    TMP DP  RH WIND       PRES   REMARKS
JAMESTOWN      FAIR      62  37  39 NE7       30.18F
FARGO          FAIR      64  46  52 N12       30.17F
WAHPETON       FAIR      64  36  34 NW8       30.17F
$$




USA.gov is the U.S. government's official web portal to all federal, state and local government web resources and services.